Akron Canton, OH

5:50 PM EDT on April 25, 2017 (GMT -0400)
Akron-Canton Regional

Weather History for KCAK - September, 1959

Change the Weather History Date:

Friday, September 11, 1959

  Actual Average Record
Temperature  
Mean Temperature 58 °F 65 °F  
Max Temperature 64 °F 75 °F 94 °F (1931)
Min Temperature 50 °F 55 °F 38 °F (1995)
Degree Days  
Heating Degree Days 8 2  
Month to date heating degree days 17  
Since 1 July heating degree days 37  
Cooling Degree Days 0 3  
Month to date cooling degree days 38  
Year to date cooling degree days 620  
Growing Degree Days 8 (Base 50)    
Moisture  
Dew Point 50 °F    
Average Humidity 75    
Maximum Humidity 89    
Minimum Humidity 64    
Precipitation  
Precipitation 0.00 in 0.12 in 1.15 in (1975)
Month to date precipitation 1.30  
Year to date precipitation 28.50  
Snow  
Snow 0.00 in 0.00 in - ()
Month to date snowfall 0.0  
Since 1 July snowfall 0.0  
Since 1 September snowfall 0.0  
Snow Depth -    
Sea Level Pressure  
Sea Level Pressure 30.28 in    
Wind  
Wind Speed 11 mph (North)    
Max Wind Speed 20 mph    
Max Gust Speed -    
Visibility 14 miles    
Events Rain    
T = Trace of Precipitation, MM = Missing Value Source: NWS Daily Summary

Daily Weather History Graph

Daily Weather History Graph

Search for Another Location

Airport or City:

Trip Planner

Search our weather history database for the weather conditions in past years. The results will help you decide how hot, cold, wet, or windy it might be!

Date:

Astronomy

Sep. 11, 1959 Rise Set
Actual Time 7:01 AM EDT 7:42 PM EDT
Civil Twilight 6:33 AM EDT 8:10 PM EDT
Nautical Twilight 6:01 AM EDT 8:43 PM EDT
Astronomical Twilight 5:27 AM EDT 9:16 PM EDT
Moon 4:06 PM EDT (9/11) 1:21 AM EDT (9/11)
Length of Visible Light 13h 36m
Length of Day
12h 41m
Waxing Gibbous, 69% of the Moon is Illuminated
Sep 11
Waxing Gibbous
Sep 16
Full
Sep 24
Last Quarter
Oct 2
New
Oct 9
First Quarter

Hourly Weather History & Observations

Time (EDT) Temp. Dew Point Humidity Pressure Visibility Wind Dir Wind Speed Gust Speed Precip Events Conditions
12:00 AM 59.0 °F 48.9 °F 69% 30.22 in 15.0 mi North 6.9 mph - N/A   Drizzle
1:00 AM 57.9 °F 48.9 °F 72% 30.23 in 15.0 mi North 11.5 mph - N/A   Drizzle
2:00 AM 57.9 °F 50.0 °F 75% 30.21 in 15.0 mi NNW 10.4 mph - N/A   Drizzle
3:00 AM 57.9 °F 48.9 °F 72% 30.21 in 15.0 mi NNW 11.5 mph - N/A   Drizzle
4:00 AM 57.0 °F 48.0 °F 72% 30.22 in 15.0 mi North 11.5 mph - N/A   Drizzle
5:00 AM 57.0 °F 51.1 °F 81% 30.23 in 15.0 mi NNW 12.7 mph - N/A   Drizzle
6:00 AM 53.1 °F 48.0 °F 83% 30.24 in 15.0 mi North 6.9 mph - N/A   Drizzle
7:00 AM 54.0 °F 48.0 °F 80% 30.26 in 15.0 mi North 9.2 mph - N/A   Drizzle
8:00 AM 55.0 °F 50.0 °F 83% 30.27 in 15.0 mi North 8.1 mph - N/A Rain Light Rain Showers
9:00 AM 57.9 °F 53.1 °F 84% 30.29 in 15.0 mi North 11.5 mph - N/A   Drizzle
10:00 AM 59.0 °F 51.1 °F 75% 30.30 in 15.0 mi NNE 13.8 mph - N/A   Drizzle
11:00 AM 60.1 °F 51.1 °F 72% 30.31 in 15.0 mi NNE 11.5 mph - N/A   Drizzle
12:00 PM 59.0 °F 50.0 °F 72% 30.32 in 15.0 mi North 19.6 mph - N/A   Drizzle
1:00 PM 62.1 °F 50.0 °F 65% 30.32 in 15.0 mi North 16.1 mph - N/A   Drizzle
2:00 PM 61.0 °F 48.9 °F 64% 30.32 in 15.0 mi North 13.8 mph - N/A   Drizzle
3:00 PM 62.1 °F 50.0 °F 65% 30.31 in 15.0 mi NNW 15.0 mph - N/A   Drizzle
4:00 PM 64.0 °F 52.0 °F 65% 30.30 in 15.0 mi NNW 17.3 mph - N/A   Drizzle
5:00 PM 61.0 °F 50.0 °F 67% 30.30 in 15.0 mi North 11.5 mph - N/A   Drizzle
6:00 PM 61.0 °F 48.9 °F 64% 30.29 in 15.0 mi North 11.5 mph - N/A   Drizzle
7:00 PM 59.0 °F 48.0 °F 67% 30.31 in 15.0 mi North 11.5 mph - N/A   Drizzle
8:00 PM 55.9 °F 51.1 °F 84% 30.32 in 15.0 mi North 8.1 mph - N/A   Drizzle
9:00 PM 52.0 °F 48.0 °F 86% 30.33 in 10.0 mi North 9.2 mph - N/A   Drizzle
10:00 PM 51.1 °F 48.0 °F 89% 30.34 in 10.0 mi North 9.2 mph - N/A   Drizzle
11:00 PM 50.0 °F 46.9 °F 89% 30.33 in 10.0 mi North 9.2 mph - N/A   Drizzle